Sarasota Bradenton International Airport
KSRQ : rendu visible

Aérodrome :











RETROUVEZ-NOUS SUR...

 
LOGIN :

S'inscrire | Disclaimer

   EN    FR    IT 

 









Légende :    VFR   VFR Marginal   IFR   IFR Intensif   IFR Très Intensif
Visi : 
Plafond : 
>= 8 km
>= 3000ft
5 à 8 km
1000 à 3000 ft
1500m à 5 km
500 à 1000 ft
800 à 1500m
200 à 500 ft
< 800m
< 200 ft
Symboles :   Orages  Brouillard  Fortes neiges  Fortes précipitations  Vent > 20 kt






- Altitude de l'aérodrome : 30 ft
- Code IATA : SRQ


KSRQ - Sarasota Bradenton International

DERNIER METAR :
  • 281153Z 04004KT 10SM BKN047 09/07 A3023 RMK AO2 SLP234 T00940067 10117 20094 53008

METARs EXPIRÉS :
  • 281053Z 36003KT 10SM FEW044 11/06 A3021 RMK AO2 SLP229 T01110056
  • 280953Z AUTO 35006KT 10SM FEW041 11/04 A3020 RMK AO2 SLP225 T01110044

TAF KSRQ
Valide du 28 à 12h jusqu'au 29 à 12h UTC


281125Z 2812/2912 35006KT P6SM SCT045
FM281500 31009KT P6SM SCT045 SCT250
FM290100 31006KT P6SM FEW250
FM290600 29009KT P6SM FEW050 SCT250



MET'MAP, la Météo Aéronautique d'un coup d'oeil ! - Copyright ORBIFLY Décembre 2007 - Disclaimer

ORBIFLY MET'MAP TEAM :

Programmation & Développement : Alexandra Zaïnal
Sur une idée originale de : Baudouin d'Aumeries
Assistance à la programmation : Marc-Olivier Méhu
Soutien technique & logistique : Manuel Goepfert

Contact : metmap@orbifly.com




SOURCES & CREDITS :

   NOAA       Earth
Advisory